{"data":{"norad_id":68804,"epoch":"2026-05-25T02:53:21.003072Z","epoch_age_seconds":64353,"freshness":"FRESH","line1":"1 68804U 26089C   26145.12038198  .00175815  00000+0  11561-2 0  9993","line2":"2 68804  97.2853 351.7530 0003277  49.0533 311.1015 15.75175218  5064","mean_motion":15.75175218,"eccentricity":0.0003277,"inclination_deg":97.2853,"raan_deg":351.753,"arg_perigee_deg":49.0533,"mean_anomaly_deg":311.1015,"bstar":0.0011561,"rev_number":506,"period_min":91.418401174973,"perigee_km":341.9297367008,"apogee_km":346.33551221267,"semimajor_km":6722.2696244567,"source":"CELESTRAK","updated_at":"2026-05-25T13:38:22.040172Z"}}